• Join FlightAware (Why Join?)
  • Login
  • US Flag 
03:41AM EST


 

Airport Tracker/Info


-or-


 

Live Flight TrackerFlight Track Log ✈ VRT51 ✈ 10-Oct-2013 ✈ KFLL - KTMA

Flight Track Log - Related Links

Times and Time Zones

All times are in EDT time to prevent confusion due to time zone crossing. See the VRT51 flight status page for this flight to view local times or setup timezone preferences in your user account.

Time Position Orientation Groundspeed Altitude Reporting Facility
EDT Latitude Longitude Course Direction KTS MPH feet Rate Location/Type
01:22PM 26.0750 -80.1389 80° East 158 182 800  Level Miami Center
01:23PM 26.0772 -80.1253 80° East 159 183 1,000 2,514 Climbing Miami Center
01:24PM 26.0847 -80.0744 81° East 186 214 3,900 3,100 Climbing Miami Center
01:24PM 26.0933 -80.0656 43° Northeast 176 203 4,100 2,507 Climbing Miami Center
01:25PM 26.1258 -80.0964 320° Northwest 194 223 6,700 2,600 Climbing Miami Center
01:25PM 26.1319 -80.1036 313° West 189 217 6,700 2,459 Level Miami Center
01:26PM 26.1578 -80.1736 292° West 246 283 9,200 2,750 Climbing Miami Center
01:27PM 26.1831 -80.2531 290° West 310 357 12,200 3,300 Climbing Miami Center
01:28PM 26.2164 -80.3375 294° West 310 357 15,800 2,400 Climbing Miami Center
01:29PM 26.2517 -80.4425 291° West 341 392 17,000 2,000 Climbing Miami Center
01:30PM 26.2925 -80.5575 292° West 379 436 19,800 2,900 Climbing Miami Center
01:31PM 26.3589 -80.6592 306° West 392 451 22,800 2,950 Climbing Miami Center
01:32PM 26.4358 -80.7497 314° West 396 456 25,700 2,350 Climbing Miami Center
01:33PM 26.5303 -80.8064 332° Northwest 391 450 27,500 1,650 Climbing Miami Center
01:34PM 26.6228 -80.8650 330° Northwest 405 466 29,000 1,450 Climbing Miami Center
01:35PM 26.7208 -80.9428 325° Northwest 424 488 30,400 1,550 Climbing Miami Center
01:36PM 26.8231 -81.0186 326° Northwest 436 502 32,100 1,850 Climbing Miami Center
01:37PM 26.9317 -81.0900 330° Northwest 429 494 34,100 1,700 Climbing Miami Center
01:38PM 27.0297 -81.1611 327° Northwest 424 488 35,500 1,350 Climbing Miami Center
01:39PM 27.1197 -81.2253 328° Northwest 424 488 36,800 1,050 Climbing Miami Center
01:40PM 27.2156 -81.2964 327° Northwest 424 488 37,600 1,250 Climbing Miami Center
01:41PM 27.3136 -81.3656 328° Northwest 418 481 39,300 1,200 Climbing Miami Center
01:42PM 27.4158 -81.4397 327° Northwest 406 467 40,000 226 Climbing Miami Center
01:44PM 27.6217 -81.5836 328° Northwest 416 479 40,000  Level Jacksonville Center
01:45PM 27.7247 -81.6547 329° Northwest 422 486 40,000  Level Jacksonville Center
01:46PM 27.8256 -81.7286 327° Northwest 429 494 40,000  Level Jacksonville Center
01:47PM 27.9283 -81.8050 327° Northwest 435 501 40,000  Level Jacksonville Center
01:48PM 28.0208 -81.8722 327° Northwest 435 501 40,000  Level Jacksonville Center
01:49PM 28.1194 -81.9467 326° Northwest 435 501 40,000  Level Jacksonville Center
01:50PM 28.2200 -82.0211 327° Northwest 435 501 40,000  Level Jacksonville Center
01:51PM 28.3206 -82.0933 328° Northwest 435 501 40,000  Level Jacksonville Center
01:52PM 28.4214 -82.1703 326° Northwest 435 501 40,000  Level Jacksonville Center
01:53PM 28.5322 -82.2167 340° North 425 489 40,000  Level Jacksonville Center
01:54PM 28.6408 -82.2658 338° Northwest 425 489 40,000  Level Jacksonville Center
01:55PM 28.7497 -82.3100 340° North 414 476 40,000  Level Jacksonville Center
01:56PM 28.8647 -82.3592 339° North 408 470 40,000  Level Jacksonville Center
01:57PM 28.9733 -82.4083 338° Northwest 408 470 40,000  Level Jacksonville Center
01:58PM 29.0800 -82.4531 340° North 414 476 40,000 -50 Level Jacksonville Center
01:59PM 29.1908 -82.4978 341° North 414 476 39,900 -950 Descending Jacksonville Center
02:00PM 29.3056 -82.4950 North 396 456 38,100 -1,900 Descending Jacksonville Center
02:01PM 29.4267 -82.4919 North 407 468 36,100 -2,000 Descending Jacksonville Center
02:02PM 29.5478 -82.4867 North 425 489 34,100 -2,000 Descending Jacksonville Center
02:03PM 29.6667 -82.5150 348° North 425 489 32,100 -2,000 Descending Jacksonville Center
02:04PM 29.7756 -82.5767 334° Northwest 425 489 30,100 -2,000 Descending Jacksonville Center
02:05PM 29.8864 -82.6361 335° Northwest 433 498 28,100 -2,000 Descending Jacksonville Center
02:06PM 29.9844 -82.6936 333° Northwest 438 504 26,100 -2,000 Descending Jacksonville Center
02:07PM 30.0972 -82.7533 335° Northwest 438 504 24,100 -2,000 Descending Jacksonville Center
02:08PM 30.2081 -82.8133 335° Northwest 438 504 22,100 -2,067 Descending Jacksonville Center
02:09PM 30.3250 -82.8806 334° Northwest 431 496 20,000 -1,900 Descending Jacksonville Center
02:09PM 30.3144 -82.8708 142° Southeast 438 504 20,200 -1,535 Climbing Jacksonville Center
02:10PM 30.3917 -82.9167 333° Northwest 421 484 18,900 -1,800 Descending Jacksonville Center
02:10PM 30.4211 -82.9286 341° North 428 493 18,400 -1,900 Descending Jacksonville Center
02:11PM 30.5025 -82.9769 333° Northwest 418 481 17,000 -1,800 Descending Jacksonville Center
02:11PM 30.5253 -82.9842 345° North 422 486 16,600 -1,869 Descending Jacksonville Center
02:12PM 30.6067 -83.0422 328° Northwest 411 473 15,100 -1,800 Descending Jacksonville Center
02:12PM 30.6256 -83.0469 348° North 416 479 14,800 -985 Descending Jacksonville Center
02:13PM 30.7089 -83.0956 333° Northwest 385 443 14,000 -900 Descending Jacksonville Center
02:13PM 30.7236 -83.0956 360° North 398 458 13,900 -1,200 Descending Jacksonville Center
02:14PM 30.8028 -83.1611 325° Northwest 372 428 12,800 -1,200 Descending Jacksonville Center
02:14PM 30.8111 -83.1611 360° North 383 441 12,700 -1,377 Descending Jacksonville Center
02:15PM 30.8842 -83.2242 323° Northwest 352 405 11,400 -1,600 Descending Jacksonville Center
02:15PM 30.9008 -83.2317 339° North 365 420 11,100 -1,574 Descending Jacksonville Center
02:16PM 30.9675 -83.2875 324° Northwest 333 383 9,800 -1,500 Descending Jacksonville Center
02:16PM 30.9778 -83.2875 360° North 348 400 9,600 -1,300 Descending Jacksonville Center
02:17PM 31.0447 -83.3194 338° Northwest 309 356 8,500 -1,300 Descending Jacksonville Center
02:17PM 31.0572 -83.3219 350° North 319 367 8,300 -1,672 Descending Jacksonville Center
02:18PM 31.1281 -83.3417 347° North 295 339 6,800 -1,700 Descending Jacksonville Center
02:18PM 31.1364 -83.3417 360° North 301 346 6,600 -1,714 Descending Jacksonville Center